EW9755 Weather Reports


time (UTC)temp
C
wind
direction
speed
KPH
gust
KPH
rain 1hr
cm
rain 24hr
cm
rain mn
cm
humidity
%
barometer
mb
20260506134540 25 104 17.7 25.7 0.00 0.00 0.00 95 1009.7
20260506133900 25 111 20.9 29.0 0.00 0.00 0.00 95 1009.7
20260506133220 25 114 19.3 27.4 0.00 0.00 0.00 95 1009.7
20260506132540 25 111 17.7 27.4 0.00 0.00 0.00 95 1009.7
20260506131900 25 117 22.5 25.7 0.00 0.00 0.00 95 1009.7
20260506131220 25 112 16.1 20.9 0.00 0.00 0.00 96 1009.7
20260506130754 25 120 17.7 20.9 0.00 0.00 0.00 96 1010.0
20260506130109 25 121 16.1 19.3 0.00 0.00 0.00 96 1010.0
20260506125430 25 123 14.5 22.5 0.00 0.00 0.00 96 1009.7
20260506124540 25 123 16.1 22.5 0.00 0.00 0.00 97 1009.7
20260506124111 25 117 14.5 19.3 0.00 0.00 0.00 97 1009.7
20260506123432 25 125 14.5 19.3 0.00 0.00 0.00 97 1009.7
20260506122542 25 124 12.9 19.3 0.00 0.00 0.00 96 1009.7
20260506122113 25 126 16.1 22.5 0.00 0.00 0.00 96 1009.7
20260506121434 25 128 14.5 25.7 0.00 0.00 0.00 96 1009.3
20260506120540 25 122 19.3 22.5 0.00 0.00 0.00 96 1009.3
20260506115902 25 125 14.5 25.7 0.00 0.00 0.00 96 1009.3
20260506115221 25 123 19.3 25.7 0.00 0.00 0.00 96 1009.3
20260506114540 25 122 20.9 24.1 0.00 0.00 0.00 96 1009.0
20260506113900 25 123 19.3 22.5 0.00 0.00 0.00 96 1009.3
20260506113222 25 122 17.7 22.5 0.00 0.00 0.00 96 1009.3
20260506112540 25 123 14.5 22.5 0.00 0.00 0.00 96 1009.3
20260506112114 25 123 16.1 22.5 0.00 0.00 0.00 96 1009.0
20260506111429 25 117 17.7 25.7 0.00 0.00 0.00 96 1009.0
20260506110540 25 120 16.1 25.7 0.00 0.00 0.00 96 1009.0
20260506105900 25 121 20.9 25.7 0.00 0.00 0.00 96 1009.0
20260506105431 25 121 16.1 25.7 0.00 0.00 0.00 96 1009.0
20260506104752 25 117 19.3 27.4 0.00 0.00 0.00 96 1009.0
20260506103900 25 123 20.9 27.4 0.00 0.00 0.00 96 1009.0
20260506103220 25 121 17.7 20.9 0.00 0.00 0.00 96 1009.0
20260506102540 25 132 16.1 20.9 0.00 0.00 0.00 96 1009.0
20260506101900 25 127 17.7 24.1 0.00 0.00 0.00 96 1009.0
20260506101220 25 126 16.1 24.1 0.00 0.00 0.00 96 1009.0
20260506100540 25 127 16.1 22.5 0.00 0.00 0.00 95 1008.6
20260506095901 25 121 12.9 27.4 0.00 0.00 0.00 95 1008.6
20260506095220 25 117 20.9 27.4 0.00 0.00 0.00 96 1008.6
20260506094540 25 120 22.5 29.0 0.00 0.00 0.00 96 1008.6
20260506094113 25 117 22.5 29.0 0.00 0.00 0.00 96 1008.6
20260506093220 25 119 22.5 27.4 0.00 0.00 0.00 96 1008.6
20260506092540 25 115 19.3 25.7 0.00 0.00 0.00 96 1008.6
20260506091900 25 117 19.3 27.4 0.00 0.00 0.00 96 1008.6
20260506091220 25 113 19.3 27.4 0.00 0.00 0.00 96 1008.6
20260506090540 25 116 22.5 27.4 0.00 0.00 0.00 96 1008.6
20260506085900 25 118 20.9 27.4 0.00 0.00 0.00 96 1008.6
20260506085220 25 115 22.5 27.4 0.00 0.00 0.00 96 1008.6
20260506084753 25 114 16.1 22.5 0.00 0.00 0.00 96 1008.6
20260506083900 25 119 14.5 19.3 0.00 0.00 0.00 97 1009.0
20260506083220 25 128 14.5 20.9 0.00 0.00 0.00 97 1009.0
20260506082750 25 133 14.5 19.3 0.00 0.00 0.00 97 1009.0
20260506081900 25 129 16.1 19.3 0.00 0.00 0.00 97 1009.3
20260506081220 25 124 14.5 19.3 0.00 0.00 0.00 97 1009.3
20260506080540 25 129 16.1 20.9 0.00 0.00 0.00 97 1009.0
20260506073220 25 136 12.9 19.3 0.00 0.00 0.00 96 1009.7
20260506072750 25 138 11.3 19.3 0.00 0.00 0.00 96 1009.7
20260506071900 25 134 11.3 19.3 0.00 0.00 0.00 96 1009.7
20260506071220 25 138 12.9 16.1 0.00 0.00 0.00 96 1009.7
20260506070540 25 139 11.3 20.9 0.00 0.00 0.00 96 1010.0
20260506061900 25 131 19.3 25.7 0.00 0.00 0.00 96 1009.7
20260506061220 25 127 17.7 30.6 0.00 0.00 0.00 96 1009.7
20260506060540 25 127 20.9 30.6 0.00 0.00 0.00 96 1009.7
20260506051221 25 128 22.5 32.2 0.00 0.00 0.00 95 1009.3
20260506050540 25 124 22.5 32.2 0.00 0.00 0.00 95 1009.3
20260506044540 25 127 24.1 37.0 0.00 0.00 0.00 95 1009.7
20260506044111 25 126 25.7 37.0 0.00 0.00 0.00 94 1009.7
20260506043220 25 128 25.7 35.4 0.00 0.00 0.00 94 1009.3
20260506042540 25 127 25.7 32.2 0.00 0.00 0.00 94 1009.3
20260506041900 25 126 24.1 35.4 0.00 0.00 0.00 94 1009.7
20260506041220 25 126 22.5 32.2 0.00 0.00 0.00 94 1009.3
20260506040540 25 128 24.1 35.4 0.00 0.00 0.00 94 1009.7
20260506035900 25 130 29.0 38.6 0.00 0.00 0.00 94 1009.7
20260506035220 25 128 24.1 38.6 0.00 0.00 0.00 94 1009.7
20260506034751 25 127 22.5 35.4 0.00 0.00 0.00 94 1009.7
20260506033900 25 128 25.7 35.4 0.00 0.00 0.00 94 1009.3
20260506033220 25 127 24.1 35.4 0.00 0.00 0.00 94 1009.7
20260506032540 25 126 25.7 33.8 0.00 0.00 0.00 94 1009.3
20260506031900 25 125 24.1 35.4 0.00 0.00 0.00 94 1009.3
20260506031220 25 127 24.1 35.4 0.00 0.00 0.00 94 1009.3
20260506030540 25 124 25.7 35.4 0.00 0.00 0.00 94 1009.3
20260506025900 25 127 25.7 37.0 0.00 0.00 0.00 94 1009.3
20260506025431 25 129 27.4 33.8 0.00 0.00 0.00 94 1009.3
20260506024540 25 130 27.4 33.8 0.00 0.00 0.00 94 1009.0
20260506023900 25 127 27.4 35.4 0.00 0.00 0.00 94 1009.0
20260506023220 25 130 25.7 38.6 0.00 0.00 0.00 94 1009.0
20260506022540 25 129 29.0 35.4 0.00 0.00 0.00 94 1009.0
20260506021900 25 128 27.4 35.4 0.00 0.00 0.00 94 1008.6
20260506021220 25 129 25.7 38.6 0.00 0.00 0.00 94 1008.6
20260506020540 25 129 29.0 38.6 0.00 0.00 0.00 94 1008.6
20260506015900 25 127 27.4 37.0 0.00 0.00 0.00 94 1008.6
20260506015220 25 129 29.0 37.0 0.00 0.00 0.00 94 1008.3
20260506014540 25 127 25.7 37.0 0.00 0.00 0.00 94 1008.3
20260506013900 25 128 24.1 37.0 0.00 0.00 0.00 94 1008.3
20260506013220 25 123 29.0 37.0 0.00 0.00 0.00 94 1008.0
20260506012540 25 122 24.1 33.8 0.00 0.00 0.00 94 1008.0
20260506011902 25 122 24.1 33.8 0.00 0.00 0.00 94 1008.0
20260506011220 25 122 20.9 29.0 0.00 0.00 0.00 94 1008.0
20260506010540 25 125 19.3 32.2 0.00 0.00 0.00 93 1007.6
20260506010112 25 124 20.9 29.0 0.00 0.00 0.00 93 1007.6
20260506005432 25 125 20.9 30.6 0.00 0.00 0.00 93 1007.6
20260506004541 25 125 24.1 32.2 0.00 0.00 0.00 93 1007.6
20260506003900 25 127 25.7 35.4 0.00 0.00 0.00 93 1007.6
20260506003220 25 130 29.0 33.8 0.00 0.00 0.00 93 1007.6
20260506002540 25 130 22.5 35.4 0.00 0.00 0.00 92 1007.6
20260506001900 25 128 27.4 35.4 0.00 0.00 0.00 92 1007.6
20260506001222 25 133 25.7 35.4 0.00 0.00 0.00 92 1008.0
20260506000540 25 129 25.7 35.4 0.00 0.00 0.00 92 1008.0
20260506000112 25 126 25.7 35.4 0.00 0.00 0.00 92 1008.0
20260505235433 25 129 25.7 33.8 0.00 0.00 0.00 92 1008.0
20260505234754 25 130 25.7 33.8 0.00 0.00 0.00 92 1007.6
20260505233900 25 129 25.7 33.8 0.00 0.00 0.00 91 1007.6
20260505233220 25 133 29.0 33.8 0.00 0.00 0.00 91 1007.6
20260505232540 25 131 29.0 35.4 0.00 0.00 0.00 91 1008.0
20260505231900 25 135 25.7 33.8 0.00 0.00 0.00 90 1008.3
20260505231220 25 132 24.1 35.4 0.00 0.00 0.00 90 1008.3
20260505230540 25 132 24.1 35.4 0.00 0.00 0.00 89 1008.0
20260505230113 25 137 24.1 35.4 0.00 0.00 0.00 89 1008.3
20260505225220 25 135 25.7 33.8 0.00 0.00 0.00 89 1008.3
20260505224542 25 141 24.1 37.0 0.00 0.00 0.00 90 1008.3
20260505223900 25 140 27.4 37.0 0.00 0.00 0.00 89 1008.3
20260505223430 25 142 30.6 37.0 0.00 0.00 0.00 89 1008.3
20260505222540 25 132 24.1 30.6 0.00 0.00 0.00 89 1008.3
20260505221900 25 137 16.1 32.2 0.00 0.00 0.00 90 1008.3
20260505221220 25 137 25.7 37.0 0.00 0.00 0.00 88 1008.3
20260505220540 26 135 24.1 37.0 0.00 0.00 0.00 88 1008.3
20260505215900 25 145 30.6 37.0 0.00 0.00 0.00 89 1008.3
20260505215220 26 136 24.1 35.4 0.00 0.00 0.00 88 1008.3
20260505214540 25 148 27.4 35.4 0.00 0.00 0.00 88 1008.3
20260505213900 26 143 25.7 37.0 0.00 0.00 0.00 88 1008.3
20260505213220 26 139 30.6 37.0 0.00 0.00 0.00 87 1008.6
20260505212540 26 142 25.7 32.2 0.00 0.00 0.00 86 1008.6
20260505211900 26 147 19.3 33.8 0.00 0.00 0.00 87 1009.0
20260505211220 26 154 25.7 35.4 0.00 0.00 0.00 87 1009.0
20260505210540 25 146 27.4 35.4 0.00 0.00 0.00 89 1009.0
20260505205900 26 142 27.4 33.8 0.00 0.00 0.00 89 1009.0
20260505205220 26 143 19.3 32.2 0.00 0.00 0.00 88 1009.0
20260505204540 25 144 24.1 33.8 0.00 0.00 0.00 88 1009.3
20260505203900 25 138 22.5 37.0 0.00 0.00 0.00 89 1009.3
20260505203220 25 146 24.1 38.6 0.00 0.00 0.00 90 1009.7
20260505202540 25 145 29.0 40.2 0.00 0.00 0.00 89 1009.7
20260505201900 25 155 27.4 40.2 0.00 0.00 0.00 89 1009.7
20260505201220 25 135 27.4 35.4 0.00 0.00 0.00 90 1009.3
20260505200540 25 150 25.7 38.6 0.00 0.00 0.00 90 1009.7
20260505195900 25 149 27.4 38.6 0.00 0.00 0.00 88 1009.7
20260505195221 25 146 30.6 40.2 0.00 0.00 0.00 89 1009.7
20260505194751 25 150 32.2 43.5 0.00 0.00 0.00 89 1009.7
20260505193900 25 151 32.2 43.5 0.00 0.00 0.00 88 1009.7
20260505193220 25 146 32.2 41.8 0.00 0.00 0.00 89 1009.7
20260505192540 25 145 29.0 40.2 0.00 0.00 0.00 87 1009.7
20260505191900 26 143 29.0 38.6 0.00 0.00 0.00 88 1009.7
20260505191220 26 141 29.0 37.0 0.00 0.00 0.00 86 1009.7
20260505190750 25 150 32.2 38.6 0.00 0.00 0.00 89 1009.7
20260505185900 25 150 27.4 38.6 0.00 0.00 0.00 87 1010.0
20260505185220 25 145 27.4 41.8 0.00 0.00 0.00 89 1010.0
20260505184540 25 147 33.8 41.8 0.00 0.00 0.00 88 1009.7
20260505184112 25 145 35.4 43.5 0.00 0.00 0.00 89 1010.0
20260505183220 25 143 32.2 43.5 0.00 0.00 0.00 88 1010.0
20260505182540 25 146 30.6 43.5 0.00 0.00 0.00 88 1010.0
20260505181900 25 148 35.4 43.5 0.00 0.00 0.00 86 1009.7
20260505181220 25 143 32.2 41.8 0.00 0.00 0.00 86 1010.0
20260505180540 25 151 32.2 43.5 0.00 0.00 0.00 86 1010.0
20260505175900 26 145 29.0 41.8 0.00 0.00 0.00 86 1010.0
20260505175220 26 143 24.1 41.8 0.00 0.00 0.00 85 1010.3
20260505174540 26 142 29.0 41.8 0.00 0.00 0.00 86 1010.3
20260505173900 25 140 27.4 40.2 0.00 0.00 0.00 87 1010.3
20260505173220 25 137 29.0 45.1 0.00 0.00 0.00 88 1010.3
20260505172540 25 142 25.7 38.6 0.00 0.00 0.00 86 1010.3
20260505171900 26 135 29.0 37.0 0.00 0.00 0.00 86 1010.3
20260505171430 26 142 25.7 35.4 0.00 0.00 0.00 87 1010.3
20260505170542 25 143 25.7 35.4 0.00 0.00 0.00 87 1010.3
20260505165902 25 140 22.5 38.6 0.00 0.00 0.00 87 1010.3
20260505165432 25 138 24.1 38.6 0.00 0.00 0.00 88 1010.7
20260505164753 25 149 24.1 38.6 0.00 0.00 0.00 90 1010.7
20260505163900 25 149 29.0 41.8 0.00 0.00 0.00 89 1010.3
20260505163220 25 152 25.7 35.4 0.00 0.00 0.00 90 1010.3
20260505162540 25 151 24.1 37.0 0.00 0.00 0.00 89 1010.3
20260505162110 25 151 24.1 38.6 0.00 0.00 0.00 90 1010.3
20260505161431 25 149 27.4 38.6 0.00 0.00 0.00 89 1010.3
20260505160540 25 144 32.2 38.6 0.00 0.00 0.00 89 1010.3
20260505153220 25 151 30.6 40.2 0.00 0.00 0.00 90 1010.3
20260505152540 25 145 33.8 41.8 0.00 0.00 0.00 89 1010.3
20260505151900 25 151 27.4 38.6 0.00 0.00 0.00 90 1010.3
20260505151220 25 147 27.4 35.4 0.00 0.00 0.00 90 1010.3
20260505150540 25 149 27.4 33.8 0.00 0.00 0.00 89 1010.3
20260505150113 25 152 22.5 35.4 0.00 0.00 0.00 89 1010.3
20260505140540 24 147 32.2 40.2 0.00 0.00 0.00 90 1010.0